Location: Unspecified
(42.0000°S, 95.0000°E)
Time: 06:21:21
(UTC+00:00)

YAOGAN 19 - All Passes

Search period start: 30 May 2024 00:00
Search period end: 09 June 2024 00:00
Orbit: 1194 x 1209 km, 100.0° (Epoch: 29 May)

Date Brightness Start Highest point End Pass type
(mag) Time Alt. Az. Time Alt. Az. Time Alt. Az.
30 May - 00:34:34 10° WNW 00:38:08 14° W 00:41:43 10° WSW daylight
30 May - 10:11:18 10° SE 10:16:13 19° E 10:21:06 10° NE daylight
30 May - 11:57:29 10° SSE 12:04:45 79° WSW 12:11:56 10° NNW visible
30 May - 13:47:10 10° SSW 13:51:24 17° SW 13:55:38 10° W visible
30 May - 20:42:15 10° E 20:46:35 17° SE 20:50:57 10° SSE visible
30 May - 22:26:02 10° NNE 22:33:16 80° ESE 22:40:36 10° SSW visible
31 May - 00:16:56 10° NW 00:21:49 19° W 00:26:44 10° SW visible
31 May - 09:56:18 10° ESE 09:59:54 14° E 10:03:28 10° ENE daylight
31 May - 11:41:24 10° SSE 11:48:43 83° ENE 11:55:55 10° NNW visible
31 May - 13:30:33 10° S 13:35:39 21° SW 13:40:44 10° W visible
31 May - 20:27:41 10° ESE 20:30:53 13° SE 20:34:04 10° SSE visible
31 May - 22:10:08 10° NNE 22:17:17 64° ESE 22:24:28 10° S visible
31 May - 23:59:47 10° NW 00:05:32 25° W 00:11:21 10° SW visible
01 Jun - 11:25:24 10° SSE 11:32:38 66° ENE 11:39:46 10° N visible
01 Jun - 13:14:05 10° S 13:19:51 27° WSW 13:25:35 10° WNW visible
01 Jun - 20:14:16 10° SE 20:15:13 10° SE 20:16:09 10° SE visible
01 Jun - 21:54:23 10° NE 22:01:19 51° ESE 22:08:18 10° S visible
01 Jun - 23:42:57 10° NNW 23:49:18 33° W 23:55:44 10° SSW visible
02 Jun - 11:09:28 10° SSE 11:16:31 51° E 11:23:28 10° N visible
02 Jun - 12:57:43 10° S 13:04:00 33° WSW 13:10:14 10° WNW visible
02 Jun - 21:38:47 10° NE 21:45:24 40° ESE 21:52:03 10° S visible
02 Jun - 23:26:21 10° NNW 23:33:07 42° W 23:39:58 10° SSW visible
03 Jun - 10:53:37 10° SSE 11:00:21 40° E 11:06:59 10° NNE visible
03 Jun - 12:41:26 10° S 12:48:07 42° WSW 12:54:44 10° NW visible
03 Jun - 21:23:18 10° ENE 21:29:31 32° ESE 21:35:45 10° S visible
03 Jun - 23:09:55 10° N 23:16:58 54° W 23:24:05 10° SSW visible
04 Jun - 10:37:52 10° SE 10:44:09 31° E 10:50:21 10° NNE visible
04 Jun - 12:25:12 10° S 12:32:11 52° WSW 12:39:06 10° NW visible
04 Jun - 14:16:56 10° SW 14:18:20 11° SW 14:19:45 10° WSW visible
04 Jun - 21:07:59 10° ENE 21:13:41 26° ESE 21:19:23 10° S visible
04 Jun - 22:53:39 10° N 23:00:51 69° WNW 23:08:08 10° SSW visible
05 Jun - 00:48:23 10° W 00:49:54 11° W 00:51:25 10° WSW daylight
05 Jun - 10:22:16 10° SE 10:27:55 24° E 10:33:28 10° NE daylight
05 Jun - 12:09:03 10° S 12:16:13 66° WSW 12:23:18 10° NNW visible
05 Jun - 13:59:19 10° SSW 14:02:40 14° SW 14:05:59 10° WSW visible
05 Jun - 20:52:52 10° E 20:57:53 21° SE 21:02:54 10° S visible
05 Jun - 22:37:31 10° NNE 22:44:47 86° WNW 22:52:07 10° SSW visible
06 Jun - 00:29:38 10° WNW 00:33:33 15° W 00:37:28 10° SW visible
06 Jun - 10:06:56 10° SE 10:11:38 18° E 10:16:14 10° NE daylight
06 Jun - 11:52:56 10° SSE 12:00:13 83° WSW 12:07:24 10° NNW visible
06 Jun - 13:42:30 10° SSW 13:46:56 18° SW 13:51:22 10° W visible
06 Jun - 20:38:01 10° E 20:42:08 16° SE 20:46:15 10° SSE visible
06 Jun - 22:21:32 10° NNE 22:28:45 77° ESE 22:36:03 10° SSW visible
07 Jun - 00:12:07 10° NW 00:17:13 20° W 00:22:22 10° SW visible
07 Jun - 09:52:07 10° ESE 09:55:17 13° E 09:58:26 10° ENE daylight
07 Jun - 11:36:52 10° SSE 11:44:10 79° ENE 11:51:21 10° NNW visible
07 Jun - 13:25:55 10° S 13:31:10 22° SW 13:36:23 10° WNW visible
07 Jun - 20:23:34 10° ESE 20:26:25 13° SE 20:29:16 10° SSE visible
07 Jun - 22:05:40 10° NNE 22:12:46 61° ESE 22:19:55 10° S visible
07 Jun - 23:55:04 10° NNW 00:00:57 27° W 00:06:55 10° SW visible
08 Jun - 11:20:53 10° SSE 11:28:05 62° ENE 11:35:10 10° N visible
08 Jun - 13:09:28 10° S 13:15:21 28° WSW 13:21:12 10° WNW visible
08 Jun - 21:49:56 10° NE 21:56:49 48° ESE 22:03:43 10° S visible
08 Jun - 23:38:17 10° NNW 23:44:44 34° W 23:51:15 10° SSW visible
